Regional Weather Roundup
Issued by NWS Cleveland, OH

Home | Current Version | Previous Version | Text Only | Print | Product List | Glossary Off
Versions: 1 2 3 4 5 6 7 8 9 10 11 12 13 14 15 16 17 18 19 20 21 22 23 24 25 26 27 28 29 30 31 32 33 34 35 36 37 38 39 40 41 42 43 44 45 46 47 48 49 50

000
ASUS41 KCLE 291502
RWRCLE
OHIO REGIONAL WEATHER ROUNDUP
NATIONAL WEATHER SERVICE CLEVELAND, OH
1100 AM EDT MON AUG 29 2016

NOTE: "FAIR" INDICATES FEW OR NO CLOUDS BELOW 12,000 FEET WITH NO
SIGNIFICANT WEATHER AND/OR OBSTRUCTIONS TO VISIBILITY.

OHZ001>008-015>018-024>027-034-035-043-044-291600-
   NORTHWEST OHIO

CITY           SKY/WX    TMP DP  RH WIND       PRES   REMARKS
DEFIANCE       PTSUNNY   78  71  79 SE12      30.27S
FINDLAY        MOSUNNY   80  70  71 E8        30.26S
TOLEDO EXPRESS MOSUNNY   77  70  79 E10       30.27S
TOLEDO EXEC    PTSUNNY   78  71  79 E10       30.28R
LIMA           PTSUNNY   79  73  82 NE8       30.27S
$$

OHZ009>014-019>023-028>033-038-089-291600-
   NORTHEAST OHIO

CITY           SKY/WX    TMP DP  RH WIND       PRES   REMARKS
CLE-HOPKINS    MOSUNNY   80  62  54 E6        30.29S
CLE-LAKEFRONT  SUNNY     80  63  55 NE12      30.26S
CUY CO. ARPT   SUNNY     79  64  61 NE12      30.28S
LORAIN-ELYRIA  SUNNY     77  66  68 E10       30.28R
ASHTABULA      SUNNY     76  62  62 VRB5      30.29R
AKRON-CANTON   MOSUNNY   77  63  61 E9        30.28R
WOOSTER        SUNNY     76  67  73 E8        30.29R
MANSFIELD      PTSUNNY   79  68  69 NE10      30.29R
YOUNGSTOWN     MOSUNNY   77  60  55 VRB7      30.28S
$$

OHZ042-051>053-060>062-070>072-077>081-291600-
  SOUTHWEST OHIO

CITY           SKY/WX    TMP DP  RH WIND       PRES   REMARKS
CINC-COVINGTON MOSUNNY   81  71  71 NE9       30.24S
CINC-LUNKEN    SUNNY     80  72  76 E7        30.23S
HAMILTON       SUNNY     81  71  71 E6        30.24F
DAYTON         MOSUNNY   81  69  67 E6        30.26S
WRIGHT-PAT AFB SUNNY     80  71  73 NE7       30.24S
DAYTON GENERAL SUNNY     80  69  69 NE7       30.24S
WILMINGTON     SUNNY     80  71  74 NE7       30.25R
$$

OHZ036-037-039>041-045>050-054>059-063>069-073>076-082>088-291600-
  CENTRAL AND SOUTHEAST OHIO

CITY           SKY/WX    TMP DP  RH WIND       PRES   REMARKS
COLUMBUS       MOSUNNY   80  71  74 NE7       30.24S
OSU AIRPORT    SUNNY     81  72  74 E8        30.25S
BOLTON FIELD   SUNNY     81  72  74 E6        30.26R
RICKENBACK AFB SUNNY     79  70  75 NE9       30.24S
NEWARK         SUNNY     80  70  71 VRB5      30.25S
MARION         SUNNY     80  70  71 NE10      30.27S
LANCASTER      SUNNY     80  70  71 NE6       30.26R
ZANESVILLE     SUNNY     79  70  74 N6        30.26R
NEW PHILLY     SUNNY     80  68  66 VRB7      30.27R
$$




USA.gov is the U.S. government's official web portal to all federal, state and local government web resources and services.